This demonstration page uses our WeatherBlox Daily Observations layout. Learn more.

Hourly Observations for December 6, 2019

Temp ( °F °C ) Dew Point ( °F °C ) Humidity (%) Winds ( mph kmh ) Pressure ( in mb ) Visibility ( mi km ) Precip ( " mm )
12:15 am 00:15 Clear 32 0 28 -2 87 87 Calm 30.2 1023 10 16.0934 0 0
12:35 am 00:35 Clear 32 0 28 -2 87 87 S 5 7 30.21 1023 10 16.0934 0 0
12:55 am 00:55 Clear 32 0 28 -2 87 87 SW 6 9 30.2 1023 10 16.0934 0 0
1:15 am 01:15 Clear 32 0 28 -2 87 87 Calm 30.2 1023 10 16.0934 0 0
1:35 am 01:35 Clear 32 0 28 -2 87 87 W 3 6 30.21 1023 10 16.0934 0 0
1:55 am 01:55 Clear 32 0 30 -1 93 93 SW 5 7 30.2 1023 10 16.0934 0 0
2:15 am 02:15 Clear 32 0 30 -1 93 93 SW 3 6 30.21 1023 10 16.0934 0 0
2:35 am 02:35 Clear 32 0 28 -2 87 87 SSW 6 9 30.2 1023 10 16.0934 0 0
2:55 am 02:55 Clear 32 0 28 -2 87 87 WSW 3 6 30.2 1023 10 16.0934 0 0
3:15 am 03:15 Clear 32 0 28 -2 87 87 W 3 6 30.2 1023 10 16.0934 0 0
3:35 am 03:35 Clear 32 0 28 -2 87 87 Calm 30.19 1022 10 16.0934 0 0
3:55 am 03:55 Clear 32 0 28 -2 87 87 Calm 30.19 1022 10 16.0934 0 0
4:15 am 04:15 Clear 34 1 28 -2 81 81 Calm 30.18 1022 10 16.0934 0 0
4:35 am 04:35 Clear 34 1 28 -2 81 81 SW 3 6 30.18 1022 10 16.0934 0 0
4:55 am 04:55 Clear 34 1 28 -2 81 81 SSW 6 9 30.18 1022 10 16.0934 0 0
5:15 am 05:15 Clear 34 1 28 -2 81 81 S 7 11 30.17 1022 10 16.0934 0 0
5:35 am 05:35 Clear 34 1 28 -2 81 81 SSW 9 15 30.17 1022 10 16.0934 0 0
5:55 am 05:55 Clear 34 1 28 -2 81 81 S 8 13 30.17 1022 10 16.0934 0 0
6:15 am 06:15 Clear 34 1 28 -2 81 81 SSW 7 11 30.17 1022 10 16.0934 0 0
6:35 am 06:35 Clear 34 1 28 -2 81 81 S 8 13 30.17 1022 10 16.0934 0 0
6:55 am 06:55 Clear 34 1 28 -2 81 81 S 8 13 30.17 1022 10 16.0934 0 0
7:15 am 07:15 Sunny 34 1 28 -2 81 81 SSW 7 11 30.17 1022 10 16.0934 0 0
7:35 am 07:35 Sunny 34 1 28 -2 81 81 S 8 13 30.17 1022 10 16.0934 0 0
7:55 am 07:55 Sunny 36 2 28 -2 75 75 S 6 9 30.17 1022 10 16.0934 0 0
8:15 am 08:15 Sunny 36 2 28 -2 75 75 S 7 11 30.16 1021 10 16.0934 0 0
8:35 am 08:35 Sunny 37 3 28 -2 70 70 SSW 5 7 30.16 1021 10 16.0934 0 0
8:55 am 08:55 Sunny 37 3 30 -1 75 75 S 5 7 30.17 1022 10 16.0934 0 0
9:15 am 09:15 Sunny 39 4 30 -1 70 70 S 6 9 30.17 1022 10 16.0934 0 0
9:35 am 09:35 Sunny 41 5 30 -1 66 66 S 7 11 30.15 1021 10 16.0934 0 0
9:55 am 09:55 Sunny 43 6 30 -1 61 61 S 5 7 30.14 1021 10 16.0934 0 0
10:15 am 10:15 Sunny 45 7 30 -1 57 57 SSW 7 11 30.13 1020 10 16.0934 0 0
10:35 am 10:35 Partly Cloudy 46 8 30 -1 53 53 SSW 7 11 30.13 1020 10 16.0934 0 0
10:55 am 10:55 Partly Cloudy 46 8 30 -1 53 53 SSW 6 9 30.12 1020 10 16.0934 0 0
11:15 am 11:15 Mostly Cloudy 46 8 30 -1 53 53 S 6 9 30.11 1020 10 16.0934 0 0
11:35 am 11:35 Cloudy 46 8 30 -1 53 53 S 7 11 30.09 1019 10 16.0934 0 0
11:55 am 11:55 Mostly Cloudy 48 9 30 -1 50 50 S 8 13 30.08 1019 10 16.0934 0 0
12:15 pm 12:15 Mostly Cloudy 48 9 30 -1 50 50 SSW 9 15 30.06 1018 10 16.0934 0 0
12:35 pm 12:35 Cloudy 48 9 30 -1 50 50 S 9 15 30.06 1018 10 16.0934 0 0
12:55 pm 12:55 Cloudy 48 9 30 -1 50 50 S 9 15 30.06 1018 10 16.0934 0 0
1:15 pm 13:15 Mostly Cloudy 48 9 30 -1 50 50 S 8 13 30.05 1018 10 16.0934 0 0
1:35 pm 13:35 Mostly Cloudy 48 9 30 -1 50 50 S 7 11 30.05 1018 10 16.0934 0 0
1:55 pm 13:55 Cloudy 50 10 32 0 50 50 SSW 6 9 30.04 1017 10 16.0934 0 0
2:15 pm 14:15 Cloudy 50 10 32 0 50 50 SSW 7 11 30.04 1017 10 16.0934 0 0
2:35 pm 14:35 Cloudy 50 10 32 0 50 50 SSW 5 7 30.04 1017 10 16.0934 0 0
2:55 pm 14:55 Cloudy 50 10 34 1 54 54 SSW 3 6 30.04 1017 10 16.0934 0 0
3:15 pm 15:15 Cloudy 48 9 34 1 58 58 SSW 5 7 30.04 1017 10 16.0934 0 0
3:35 pm 15:35 Cloudy 48 9 34 1 58 58 SSW 5 7 30.05 1018 10 16.0934 0 0
3:55 pm 15:55 Cloudy 50 10 32 0 50 50 W 3 6 30.05 1017 10 16.0934 0 0
4:15 pm 16:15 Cloudy 48 9 32 0 54 54 Calm 30.06 1018 10 16.0934 0 0
4:35 pm 16:35 Cloudy 48 9 32 0 54 54 WSW 5 7 30.06 1018 10 16.0934 0 0
4:55 pm 16:55 Cloudy 48 9 32 0 54 54 WSW 6 9 30.06 1018 10 16.0934 0 0
5:15 pm 17:15 Cloudy 46 8 32 0 57 57 W 5 7 30.06 1018 10 16.0934 0 0
5:35 pm 17:35 Mostly Cloudy 46 8 32 0 57 57 W 6 9 30.07 1018 10 16.0934 0 0
5:55 pm 17:55 Mostly Cloudy 46 8 32 0 57 57 W 3 6 30.08 1019 10 16.0934 0 0
6:15 pm 18:15 Cloudy 45 7 34 1 66 66 W 5 7 30.09 1019 10 16.0934 0 0
6:35 pm 18:35 Cloudy 46 8 34 1 62 62 Calm 30.11 1020 10 16.0934 0 0
6:55 pm 18:55 Cloudy 50 10 37 3 62 62 NW 14 22 30.11 1020 10 16.0934 0 0
7:15 pm 19:15 Cloudy 50 10 41 5 71 71 NW 18 30 30.11 1020 10 16.0934 0 0
7:35 pm 19:35 Cloudy 50 10 41 5 71 71 NNW 10 17 30.13 1020 10 16.0934 0 0
7:55 pm 19:55 Cloudy 50 10 41 5 71 71 WNW 13 20 30.13 1020 10 16.0934 0 0
8:15 pm 20:15 Cloudy 50 10 41 5 71 71 WNW 6 9 30.14 1021 10 16.0934 0 0
8:35 pm 20:35 Cloudy 48 9 41 5 76 76 NW 7 11 30.14 1021 10 16.0934 0 0
8:55 pm 20:55 Cloudy 48 9 41 5 76 76 NW 12 19 30.14 1021 10 16.0934 0 0
9:15 pm 21:15 Cloudy 50 10 41 5 71 71 NW 6 9 30.15 1021 10 16.0934 0 0
9:35 pm 21:35 Cloudy 48 9 41 5 76 76 NNW 9 15 30.16 1021 10 16.0934 0 0
9:55 pm 21:55 Cloudy 46 8 36 2 66 66 N 17 28 30.19 1022 10 16.0934 0 0
10:15 pm 22:15 Cloudy 45 7 36 2 71 71 N 12 19 30.2 1023 10 16.0934 0 0
10:35 pm 22:35 Cloudy 45 7 34 1 66 66 N 8 13 30.21 1023 10 16.0934 0 0
10:55 pm 22:55 Cloudy 45 7 32 0 61 61 N 8 13 30.22 1023 10 16.0934 0 0
11:15 pm 23:15 Cloudy 43 6 32 0 66 66 N 10 17 30.23 1024 10 16.0934 0 0
11:35 pm 23:35 Cloudy 43 6 32 0 66 66 NNE 5 7 30.23 1024 10 16.0934 0 0
11:55 pm 23:55 Cloudy 43 6 32 0 66 66 N 7 11 30.24 1024 10 16.0934 0 0

Powered by AerisWeather